Location: Cahoon Acres
(40.8736°N, 111.8994°W)
Time: 21:54:51
(UTC+00:00)

Vanguard 3 - Visible Passes

Search period start: 25 May 2020 00:00
Search period end: 04 June 2020 00:00
Orbit: 510 x 3261 km, 33.3° (Epoch: 24 May)

Date Brightness Start Highest point End Pass type
(mag) Time Alt. Az. Time Alt. Az. Time Alt. Az.
25 May 10.5 09:29:06 14° S 09:34:19 17° SSE 09:41:03 10° ESE visible
26 May 10.9 08:18:46 11° SE 08:19:01 11° SE 08:22:08 10° SE visible
26 May 10.0 10:23:17 15° SSW 10:32:55 29° SSE 10:40:59 10° ESE visible
27 May 10.4 09:12:52 19° S 09:17:41 22° SSE 09:26:10 10° ESE visible
27 May 9.5 11:18:20 10° SW 11:31:26 41° SSE 11:39:18 10° E visible
28 May 10.8 08:02:23 15° SE 08:02:23 15° SE 08:09:22 10° ESE visible
28 May 9.9 10:06:53 19° SSW 10:16:20 34° SSE 10:25:29 10° E visible
29 May 10.3 08:56:19 24° S 09:00:55 27° SSE 09:10:50 10° E visible
29 May 9.5 11:00:48 11° SW 11:14:56 46° SSE 11:23:38 10° E visible
30 May 10.7 07:45:38 19° SE 07:45:38 19° SE 07:54:42 10° ESE visible
30 May 9.8 09:50:08 23° SSW 09:59:38 40° SSE 10:09:47 10° E visible
31 May 10.2 08:39:21 28° S 08:44:00 32° SSE 08:55:12 10° E visible
31 May 9.5 10:43:50 13° SW 10:58:19 51° SSE 11:07:53 10° E visible
01 Jun 10.6 07:28:29 24° SE 07:28:29 24° SE 07:39:22 10° E visible
01 Jun 9.8 09:32:57 26° SSW 09:42:47 45° SSE 09:53:57 10° E visible
02 Jun 11.0 06:17:29 13° ESE 06:17:29 13° ESE 06:20:52 10° ESE visible
02 Jun 10.1 08:21:56 32° S 08:26:56 37° SSE 08:39:20 10° E visible
02 Jun 9.5 10:26:23 14° WSW 10:41:35 56° S 10:52:01 10° E visible
03 Jun 10.5 07:10:46 28° SE 07:11:01 28° SE 07:23:38 10° E visible
03 Jun 9.8 09:15:12 27° SW 09:25:48 50° SSE 09:37:59 10° E visible
03 Jun 9.3 11:24:00 10° WSW 11:40:18 61° S 11:49:45 10° ESE visible
